Regional Weather Roundup
Issued by NWS

Home | Current Version | Previous Version | Graphics & Text | Print | Product List | Glossary On
Versions: 1 2 3 4 5 6 7 8 9 10 11 12 13 14 15 16 17 18 19 20 21 22 23 24 25 26 27 28 29 30 31 32 33 34 35 36 37 38 39 40 41 42 43 44 45 46 47 48 49 50
000
ASUS43 KDMX 181007
RWRIA

WEATHER ROUNDUP FOR IOWA
NATIONAL WEATHER SERVICE DES MOINES IA
400 AM CST THU DEC 18 2014

NOTE: "FAIR" INDICATES FEW OR NO CLOUDS BELOW 12,000 FEET WITH NO
SIGNIFICANT WEATHER AND/OR OBSTRUCTIONS TO VISIBILITY.

* - THESE STATIONS ARE NOT NWS STATIONS...THUS NOT UNDER NWS
QUALITY CONTROL.  THEY ALSO DO NOT REPORT WEATHER SUCH
AS PRECIPITATION OR FOG.

IAZ001>003-012>014-020>022-031>034-043>046-181100-
   NORTHWEST IOWA

CITY           SKY/WX    TMP DP  RH WIND       PRES   REMARKS
CARROLL *      CLOUDY    21  19  93 SE8       30.25F WCI  12
CHEROKEE *     CLOUDY    19  19 100 E8        30.24F WCI   9
DENISON *      CLOUDY    23  19  86 SE7       30.22S WCI  15
LE MARS *      CLOUDY    23  21  93 CALM      30.24S
ORANGE CITY *  CLOUDY    21  18  86 E6        30.21F WCI  14
SHELDON *      CLOUDY    18  16  93 E9        30.21F WCI   6
SIOUX CITY     CLOUDY    25  20  81 E5        30.23F WCI  19
SPENCER        CLOUDY    16  12  84 E7        30.24F WCI   6
STORM LAKE *   CLOUDY    19  18  93 E10       30.23F WCI   8
$$

IAZ055>058-069>071-079>083-090>094-181100-
   SOUTHWEST IOWA

CITY           SKY/WX    TMP DP  RH WIND       PRES   REMARKS
ATLANTIC *     CLOUDY    25  19  80 E9        30.24F WCI  15
AUDUBON *      CLEAR     23  18  80 E5        30.24F WCI  17
CLARINDA *     CLOUDY    28  21  74 E5        30.26S WCI  23
COUNCIL BLFS * CLOUDY    27  23  86 E6        30.22S WCI  20
CRESTON *      CLOUDY    25  19  80 E8        30.23F WCI  16
HARLAN  *      CLOUDY    25  23  93 E6        30.26F WCI  18
LAMONI         CLOUDY    25  19  78 E6        30.23F WCI  18
RED OAK *      CLOUDY    27  21  80 E5        30.24F WCI  21
SHENANDOAH *   CLOUDY    28  23  80 E5        30.25S WCI  23
$$

IAZ047>049-059>061-072>074-084-181100-
   CENTRAL IOWA

CITY           SKY/WX    TMP DP  RH WIND       PRES   REMARKS
AMES           CLOUDY    20  15  81 CALM      30.28S
ANKENY *       CLOUDY    21  18  86 NE3       30.29S
CHARITON *     CLOUDY    23  18  80 E6        30.25F WCI  16
DES MOINES     CLOUDY    23  16  74 E3        30.28S
GRINNELL*      MOCLDY    18  16  93 NE6       30.27F WCI   9
KNOXVILLE *    CLOUDY    21  16  79 CALM      30.27S
MARSHALLTOWN   PTCLDY    14  11  87 NE7       30.26F WCI   4
PELLA *        CLOUDY    21  18  86 CALM      30.30S
PERRY *        CLOUDY    23  19  86 E6        30.28S WCI  16
$$

IAZ004>006-015-016-023>025-035-036-181100-
   NORTH CENTRAL IOWA

CITY           SKY/WX    TMP DP  RH WIND       PRES   REMARKS
ALGONA *       PTCLDY    12  10  92 NE6       30.27F WCI   3
CLARION *      PTCLDY    14  12  92 CALM      30.27F
ESTHERVILLE    MOCLDY    11   8  88 NE5       30.25F WCI   3
FORT DODGE *   CLOUDY    18  14  86 NE7       30.26F WCI   8
MASON CITY     CLOUDY    16  13  88 CALM      30.28F
FOREST CITY *  MOCLDY    14  10  85 CALM      30.26F
IOWA FALLS *     N/A     16  12  86 NE5       30.28S WCI   9
$$

IAZ007>011-017>019-026>030-037>042-050>054-066-181100-
   NORTHEAST IOWA

CITY           SKY/WX    TMP DP  RH WIND       PRES   REMARKS
CEDAR RAPIDS     N/A     14  11  87 CALM      30.28F
CHARLES CITY * CLEAR     14  12  92 CALM      30.28F
CLINTON *      PTCLDY    14   9  79 CALM      30.31F
DECORAH *      CLEAR     14  12  92 CALM      30.27F
DUBUQUE        PTCLDY    16  13  88 CALM      30.26F
MONTICELLO *   CLEAR     16  14  93 CALM      30.29F
OELWEIN *      PTCLDY    14  10  85 CALM      30.29S
WATERLOO       CLEAR     11   9  92 CALM      30.30S
$$

IAZ064-065-067-068-078-181100-
   EAST CENTRAL IOWA

CITY           SKY/WX    TMP DP  RH WIND       PRES   REMARKS
DAVENPORT      PTCLDY    15  11  83 SW3       30.30F
IOWA CITY      PTCLDY    16  13  88 CALM      30.31S
MT. PLEASANT * CLOUDY    21  18  86 CALM      30.30R
MUSCATINE *    PTCLDY    19  16  86 N3        30.31F
QUAD CITIES    MOCLDY    18  14  84 CALM      30.29F
$$

IAZ062-063-075>077-085>089-095>099-181100-
   SOUTHEAST IOWA

CITY           SKY/WX    TMP DP  RH WIND       PRES   REMARKS
BURLINGTON     MIX PCPN  23  17  78 CALM      30.28F
FAIRFIELD *    MOCLDY    21  16  79 CALM      30.29S
FORT MADISON * CLEAR     21  19  93 CALM      30.29S
KEOKUK *       CLOUDY    23  21  93 NE5       30.28S WCI  17
OSKALOOSA *    CLOUDY    21  18  86 E3        30.29S
CENTERVILLE *  CLEAR     25  19  80 NE5       30.27S WCI  19
OTTUMWA        CLOUDY    22  16  78 E5        30.28F WCI  16
WASHINGTON *   CLEAR     19  19 100 CALM      30.28F
$$

ABBREVIATIONS USED IN REMARKS
   TC - TEMPERATURES IN CELSIUS
  WCI - WIND CHILL INDEX
   HX - HEAT INDEX
  VSB - VISIBILITY
$$




USA.gov is the U.S. government's official web portal to all federal, state and local government web resources and services.